SCP
0 0 0 0 0 0 0 0 0 0 0 0 0 0 0 0 0 0 0 0 0 0
0 0 0 0 0 0 0 0 0 0 0 0 0 0 0 0 0 0 0 0 0 0
0 0 0 0 0 0 0 0 0 0 0 0 0 0 0 0 0 0 0 0 0 0
0 0 0 0 0 0 0 0 0 0 0 0 0 0 0 0 0 0 0 0 0 0
0 0 0 0 0 0 0 0 0 0 0 0 0 0 0 0 0 0 0 0 0 0
0 0 0 0 0 0 0 0 0 0 0 0 0 0 0 0 0 0 0 0 0 0
0 0 0 0 0 0 0 0 0 0 0 0 0 0 0 0 0 0 0 0 0 0
0 0 0 0 0 0 0 0 0 0 0 0 0 0 0 0 0 0 0 0 0 0
0 0 0 0 0 0 0 0 0 0 0 0 0 0 0 0 0 0 0 0 0 0
0 0 0 0 0 0 0 0 0 0 0 0 0 0 0 0 0 0 0 0 0 0
0 0 0 0 0 0 0 0 0 0 0 0 0 0 0 0 0 0 0 0 0 0
0 0 0 0 0 0 0 0 0 0 0 0 0 0 0 0 0 0 0 0 0 0
0 0 0 0 0 0 0 0 0 0 0 0 0 0 0 0 0 0 0 0 0 0
0 0 0 0 0 0 0 0 0 0 0 0 0 0 0 0 0 0 0 0 0 0
Wind_Speed_500mb
38 39 38 37 35 37 33 32 33 30 27 24 22 21 21 24 27 32 33 36 37 38
40 39 40 39 38 36 34 34 34 31 30 29 30 29 28 31 31 31 36 39 42 43
39 40 39 38 38 38 37 36 35 33 28 30 31 31 32 35 33 37 40 36 40 43
38 38 39 39 38 36 38 37 35 32 31 29 29 30 33 36 37 35 36 39 45 46
40 39 39 38 37 37 38 36 36 36 35 31 31 32 32 35 37 43 45 45 47 51
40 41 40 40 39 39 38 36 35 35 35 36 36 37 37 39 40 43 45 47 48 48
42 42 41 40 39 39 38 38 38 37 36 36 37 38 39 42 42 46 49 49 46 47
41 42 42 42 42 41 39 38 37 37 36 36 36 37 41 41 46 49 47 47 44 43
45 43 43 43 44 44 42 41 40 38 38 37 37 37 42 42 44 42 44 43 39 38
49 49 47 46 46 45 44 43 42 41 40 39 38 37 39 39 42 43 42 40 37 36
53 52 51 51 51 49 47 46 44 42 40 41 38 39 39 38 40 42 43 37 35 39
50 52 52 55 54 52 52 50 47 45 43 42 40 40 41 40 41 40 41 39 36 34
48 53 59 57 56 53 55 54 51 50 46 44 42 38 41 40 40 41 40 40 37 36
52 54 57 56 53 54 55 56 56 53 49 48 43 40 38 39 41 40 41 41 40 40
Wind_Direction_500mb
310 312 315 317 317 317 319 323 322 311 307 309 304 294 287 283 284 285 283 285 286 285
307 313 316 317 315 315 320 320 323 318 304 306 302 297 293 280 272 276 282 285 287 285
305 311 314 315 316 315 316 318 320 323 313 303 300 299 296 293 285 271 269 270 282 285
302 308 312 313 313 313 313 315 315 314 312 310 305 302 295 294 296 292 286 271 266 274
298 303 307 308 310 312 312 311 311 312 312 310 305 301 296 294 292 288 289 285 278 275
296 298 302 306 307 309 309 309 307 306 306 305 304 303 301 295 289 284 285 285 285 285
301 298 297 299 301 303 305 306 306 306 304 301 298 298 295 293 291 297 295 292 289 287
303 300 297 298 299 300 301 302 302 301 301 300 299 299 297 298 297 300 299 299 302 305
302 300 298 298 298 299 300 301 300 302 302 301 301 299 300 303 302 305 305 306 304 310
301 299 299 296 295 297 298 299 301 302 302 303 302 301 302 303 305 307 306 303 304 302
306 303 301 296 296 297 296 296 299 301 301 301 304 304 305 306 307 307 307 303 298 300
307 304 303 302 298 296 295 296 298 299 300 301 304 304 304 306 307 308 308 305 297 294
308 306 307 306 299 293 290 294 294 296 298 299 301 301 303 306 308 310 310 309 303 291
308 309 308 306 298 293 290 290 291 294 298 299 302 303 303 306 309 311 313 313 308 303
Wind_Speed_850mb
38 39 38 37 35 37 33 32 33 30 27 24 22 21 21 24 27 32 33 36 37 38
40 39 40 39 38 36 34 34 34 31 30 29 30 29 28 31 31 31 36 39 42 43
39 40 39 38 38 38 37 36 35 33 28 30 31 31 32 35 33 37 40 36 40 43
38 38 39 39 38 36 38 37 35 32 31 29 29 30 33 36 37 35 36 39 45 46
40 39 39 38 37 37 38 36 36 36 35 31 31 32 32 35 37 43 45 45 47 51
40 41 40 40 39 39 38 36 35 35 35 36 36 37 37 39 40 43 45 47 48 48
42 42 41 40 39 39 38 38 38 37 36 36 37 38 39 42 42 46 49 49 46 47
41 42 42 42 42 41 39 38 37 37 36 36 36 37 41 41 46 49 47 47 44 43
45 43 43 43 44 44 42 41 40 38 38 37 37 37 42 42 44 42 44 43 39 38
49 49 47 46 46 45 44 43 42 41 40 39 38 37 39 39 42 43 42 40 37 36
53 52 51 51 51 49 47 46 44 42 40 41 38 39 39 38 40 42 43 37 35 39
50 52 52 55 54 52 52 50 47 45 43 42 40 40 41 40 41 40 41 39 36 34
48 53 59 57 56 53 55 54 51 50 46 44 42 38 41 40 40 41 40 40 37 36
52 54 57 56 53 54 55 56 56 53 49 48 43 40 38 39 41 40 41 41 40 40
Wind_Direction_850mb
310 312 315 317 317 317 319 323 322 311 307 309 304 294 287 283 284 285 283 285 286 285
307 313 316 317 315 315 320 320 323 318 304 306 302 297 293 280 272 276 282 285 287 285
305 311 314 315 316 315 316 318 320 323 313 303 300 299 296 293 285 271 269 270 282 285
302 308 312 313 313 313 313 315 315 314 312 310 305 302 295 294 296 292 286 271 266 274
298 303 307 308 310 312 312 311 311 312 312 310 305 301 296 294 292 288 289 285 278 275
296 298 302 306 307 309 309 309 307 306 306 305 304 303 301 295 289 284 285 285 285 285
301 298 297 299 301 303 305 306 306 306 304 301 298 298 295 293 291 297 295 292 289 287
303 300 297 298 299 300 301 302 302 301 301 300 299 299 297 298 297 300 299 299 302 305
302 300 298 298 298 299 300 301 300 302 302 301 301 299 300 303 302 305 305 306 304 310
301 299 299 296 295 297 298 299 301 302 302 303 302 301 302 303 305 307 306 303 304 302
306 303 301 296 296 297 296 296 299 301 301 301 304 304 305 306 307 307 307 303 298 300
307 304 303 302 298 296 295 296 298 299 300 301 304 304 304 306 307 308 308 305 297 294
308 306 307 306 299 293 290 294 294 296 298 299 301 301 303 306 308 310 310 309 303 291
308 309 308 306 298 293 290 290 291 294 298 299 302 303 303 306 309 311 313 313 308 303